Location: Newark
(43.4306°N, 0.3089°E)
Time: 16:58:01
(UTC+00:00)

Transit 2A Rocket - Pass Details

Date: 30 August 2019
Orbit: 593 x 910 km, 66.7° (Epoch: 15 October)

Event Time Altitude Azimuth Distance (km) Brightness Sun altitude
Rises 19:04:42 0° 261° (W) 3,367 9.6 -5.5°
Reaches altitude 10° 19:08:11 10° 282° (WNW) 2,372 9.4 -6.1°
Maximum altitude 19:11:31 16° 320° (NW) 1,909 8.0 -6.7°
Drops below altitude 10° 19:14:42 10° 359° (N) 2,245 7.7 -7.2°
Sets 19:17:53 0° 21° (NNE) 3,100 8.1 -7.7°
